Location: Chequamegon National Forest
(46.1070°N, 90.8420°W)
Time: 12:55:04
(UTC-05:00)

Amateur Radio Satellites - All Passes

Search period start: 23 July 2014 12:25
Search period end: 24 July 2014 12:25
Location: Chequamegon National Forest, 46.1070°N, 90.8420°W

Satellite Date Start Highest point End Downlink Frequencies (MHz)
Time Altitude Azimuth
FUNcube-1 23 Jul 12:27:25 12:31:05 31° 292° (WNW) 12:34:46 145.950 - 145.970 MHz USB
AO-Echo 23 Jul 12:30:02 12:31:52 12° 54° (NE) 12:33:42 ?
KITSAT 1 23 Jul 12:32:52 12:38:06 18° 359° (N) 12:43:20 435.175 FM
Saudisat 1A 23 Jul 12:34:05 12:35:12 11° 338° (NNW) 12:36:18 436.775 MHz
Oscar 19 23 Jul 13:00:08 13:04:49 37° 67° (ENE) 13:09:31 437.125 CW, 437.150 USB
JAS-1B 23 Jul 13:08:53 13:16:08 29° 51° (NE) 13:23:57 435.800 - 435.900 CW/SSB
Sapphire 23 Jul 13:17:38 13:20:14 14° 257° (WSW) 13:22:51 437.095 MHz 1200 baud AX-25 AFSK
AO-7 23 Jul 13:22:26 13:24:27 11° 33° (NNE) 13:26:27 29.400 - 29.500 MHz
TMSAT-1 23 Jul 13:24:13 13:25:31 11° 53° (NE) 13:26:50 436.925 FM
RS-15 23 Jul 13:25:57 13:34:28 26° 103° (ESE) 13:42:48 29.354 - 29.394 USB, Beacon 29.352 USB
Oscar 16 23 Jul 13:26:56 13:32:00 67° 72° (ENE) 13:37:06 437.025 USB, Beacon 2401.1428
ITAMSAT 1 23 Jul 13:35:12 13:40:00 38° 67° (ENE) 13:44:49 435.822 SSB
Gurwin Techsat 1B 23 Jul 13:41:34 13:45:23 20° 60° (ENE) 13:49:12 435.225 FM
AO-27 23 Jul 13:52:24 13:57:29 54° 70° (ENE) 14:02:35 436.795 MHz FM
Uribyol 2 23 Jul 13:55:53 14:01:00 60° 71° (ENE) 14:06:08 436.500 FM
AO-Echo 23 Jul 14:04:25 14:09:39 68° 73° (ENE) 14:14:58 ?
SO-50 23 Jul 14:12:59 14:17:09 40° 118° (ESE) 14:21:24 436.795 FM
KITSAT 1 23 Jul 14:30:00 14:36:44 28° 29° (NNE) 14:43:25 435.175 FM
Oscar 19 23 Jul 14:39:44 14:44:13 31° 265° (W) 14:48:44 437.125 CW, 437.150 USB
JAS-1B 23 Jul 14:56:45 15:05:23 89° 254° (WSW) 15:15:14 435.800 - 435.900 CW/SSB
TMSAT-1 23 Jul 14:59:12 15:04:26 64° 72° (ENE) 15:09:42 436.925 FM
AO-7 23 Jul 15:07:24 15:14:52 38° 56° (ENE) 15:22:21 29.400 - 29.500 MHz
Oscar 16 23 Jul 15:08:33 15:11:51 17° 270° (W) 15:15:10 437.025 USB, Beacon 2401.1428
UOSAT-12 23 Jul 15:10:31 15:12:26 13° 108° (ESE) 15:14:22 437.025 FM, 437.400 FM
ITAMSAT 1 23 Jul 15:14:57 15:19:34 31° 265° (W) 15:24:11 435.822 SSB
Gurwin Techsat 1B 23 Jul 15:19:35 15:24:52 66° 258° (WSW) 15:30:10 435.225 FM
AO-27 23 Jul 15:33:21 15:37:20 22° 268° (W) 15:41:20 436.795 MHz FM
RS-15 23 Jul 15:34:14 15:45:23 89° 305° (NW) 15:56:23 29.354 - 29.394 USB, Beacon 29.352 USB
Uribyol 2 23 Jul 15:37:11 15:40:53 20° 269° (W) 15:44:37 436.500 FM
AO-Echo 23 Jul 15:45:22 15:48:55 18° 271° (W) 15:52:30 ?
SO-50 23 Jul 15:53:45 15:57:47 32° 318° (NW) 16:01:56 436.795 FM
Saudisat 1A 23 Jul 15:56:26 15:58:39 14° 28° (NNE) 16:00:52 436.775 MHz
Uosat F 23 Jul 15:56:27 16:01:21 54° 70° (ENE) 16:06:17 435.120 FM
OPAL 23 Jul 16:24:21 16:28:33 26° 97° (E) 16:32:46 ?
KITSAT 1 23 Jul 16:25:22 16:33:31 77° 54° (NE) 16:41:35 435.175 FM
JAS-2 23 Jul 16:30:59 16:35:59 19° 53° (NE) 16:40:49 435.800 - 435.900 CW/SSB, 435.910 FM
TMSAT-1 23 Jul 16:41:09 16:44:49 19° 270° (W) 16:48:31 436.925 FM
UOSAT-12 23 Jul 16:47:14 16:51:51 90° 292° (WNW) 16:56:35 437.025 FM, 437.400 FM
JAS-1B 23 Jul 16:50:40 16:57:15 23° 277° (W) 17:04:28 435.800 - 435.900 CW/SSB
AO-7 23 Jul 16:59:07 17:07:19 59° 257° (WSW) 17:15:36 29.400 - 29.500 MHz
Hamsat 23 Jul 17:29:22 17:33:03 31° 68° (ENE) 17:36:45 145.90 MHz
Saudisat 1A 23 Jul 17:34:52 17:39:13 55° 49° (NE) 17:43:32 436.775 MHz
Uosat F 23 Jul 17:36:41 17:40:28 21° 268° (W) 17:44:16 435.120 FM
SO-50 23 Jul 17:39:04 17:39:49 10° 341° (NNW) 17:40:35 436.795 FM
RS-15 23 Jul 17:49:18 17:59:17 38° 334° (NNW) 18:09:17 29.354 - 29.394 USB, Beacon 29.352 USB
OPAL 23 Jul 18:02:50 18:07:36 44° 294° (WNW) 18:12:24 ?
JAS-2 23 Jul 18:12:06 18:19:56 74° 72° (ENE) 18:27:24 435.800 - 435.900 CW/SSB, 435.910 FM
KITSAT 1 23 Jul 18:21:42 18:28:08 27° 255° (WSW) 18:34:32 435.175 FM
UOSAT-12 23 Jul 18:29:16 18:32:40 20° 327° (NNW) 18:36:07 437.025 FM, 437.400 FM
HO-68 23 Jul 18:38:16 18:40:07 11° 41° (NE) 18:41:59 435.675 MHz FM
STRAND 1 23 Jul 18:38:32 18:41:25 15° 89° (E) 18:44:18 ?
SO-67 23 Jul 18:51:37 18:54:47 34° 71° (ENE) 18:57:58 435.3500 MHz FM
AO-7 23 Jul 18:59:46 19:01:55 11° 277° (W) 19:04:03 29.400 - 29.500 MHz
Hamsat 23 Jul 19:05:32 19:09:02 26° 266° (W) 19:12:34 145.90 MHz
Saudisat 1A 23 Jul 19:15:14 19:18:27 20° 247° (WSW) 19:21:38 436.775 MHz
JAS-2 23 Jul 19:59:06 20:05:28 27° 270° (W) 20:11:39 435.800 - 435.900 CW/SSB, 435.910 FM
RS-15 23 Jul 20:06:24 20:15:38 30° 8° (N) 20:24:58 29.354 - 29.394 USB, Beacon 29.352 USB
STRAND 1 23 Jul 20:16:04 20:21:12 76° 287° (WNW) 20:26:17 ?
HO-68 23 Jul 20:19:22 20:26:06 46° 63° (ENE) 20:32:50 435.675 MHz FM
SO-67 23 Jul 20:25:47 20:27:59 16° 268° (W) 20:30:13 435.3500 MHz FM
UKube-1 23 Jul 20:52:55 20:57:01 41° 69° (ENE) 21:01:08 145.840 MHz, 145.915 MHz
SO-50 23 Jul 21:02:05 21:05:16 18° 32° (NNE) 21:08:29 436.795 FM
Oscar 11 23 Jul 21:44:20 21:48:36 66° 74° (ENE) 21:52:54 145.825 FM, Beacon 2401.500 USB
FUNcube-1 23 Jul 21:50:05 21:53:52 30° 68° (ENE) 21:57:37 145.950 - 145.970 MHz USB
UOSAT-12 23 Jul 21:57:09 21:57:14 10° 16° (NNE) 21:57:20 437.025 FM, 437.400 FM
STRAND 1 23 Jul 21:57:32 21:59:32 12° 306° (NW) 22:01:31 ?
HO-68 23 Jul 22:07:12 22:13:52 40° 262° (W) 22:20:34 435.675 MHz FM
RS-15 23 Jul 22:20:26 22:31:09 53° 40° (NE) 22:42:08 29.354 - 29.394 USB, Beacon 29.352 USB
UKube-1 23 Jul 22:30:02 22:33:24 21° 266° (W) 22:36:46 145.840 MHz, 145.915 MHz
SO-50 23 Jul 22:41:52 22:46:37 76° 52° (NE) 22:51:25 436.795 FM
MaSat-1 23 Jul 22:49:05 22:52:55 49° 112° (ESE) 22:57:24 437.345 MHz
Oscar 11 23 Jul 23:23:16 23:25:16 13° 271° (W) 23:27:16 145.825 FM, Beacon 2401.500 USB
FUNcube-1 23 Jul 23:26:27 23:30:15 29° 264° (W) 23:34:01 145.950 - 145.970 MHz USB
UOSAT-12 23 Jul 23:34:52 23:38:59 28° 40° (NE) 23:43:04 437.025 FM, 437.400 FM
Lituanica SAT-1 24 Jul 00:18:14 00:19:40 16° 140° (SE) 00:21:06 437.275 MHz beacon
SO-50 24 Jul 00:23:45 00:26:39 16° 250° (WSW) 00:29:34 436.795 FM
AO-40 24 Jul 00:26:47 05:55:14 34° 181° (S) 10:18:49 Beacon 2401.320
MaSat-1 24 Jul 00:27:12 00:30:39 23° 315° (NW) 00:34:30 437.345 MHz
RS-15 24 Jul 00:33:05 00:43:43 57° 245° (WSW) 00:54:43 29.354 - 29.394 USB, Beacon 29.352 USB
PCSat 24 Jul 01:09:43 01:12:54 16° 104° (ESE) 01:16:05 145.825 MHz
Oscar 19 24 Jul 01:12:18 01:12:47 10° 86° (E) 01:13:16 437.125 CW, 437.150 USB
UOSAT-12 24 Jul 01:14:48 01:19:24 52° 239° (WSW) 01:23:57 437.025 FM, 437.400 FM
Oscar 16 24 Jul 01:36:56 01:40:37 19° 91° (E) 01:44:16 437.025 USB, Beacon 2401.1428
ITAMSAT 1 24 Jul 01:48:38 01:49:17 10° 86° (E) 01:49:57 435.822 SSB
Lituanica SAT-1 24 Jul 01:50:12 01:52:17 45° 338° (NNW) 01:54:23 437.275 MHz beacon
ISS 24 Jul 01:56:25 01:59:26 32° 141° (SE) 02:02:28 145.800 FM
AO-27 24 Jul 02:04:13 02:07:18 16° 89° (E) 02:10:22 436.795 MHz FM
Uribyol 2 24 Jul 02:07:13 02:10:35 17° 90° (E) 02:13:57 436.500 FM
OPAL 24 Jul 02:08:08 02:08:35 10° 50° (NE) 02:09:02 ?
AO-Echo 24 Jul 02:10:29 02:14:01 18° 90° (E) 02:17:28 ?
Sapphire 24 Jul 02:16:23 02:21:36 52° 116° (ESE) 02:26:52 437.095 MHz 1200 baud AX-25 AFSK
JAS-1B 24 Jul 02:40:53 02:49:13 32° 88° (E) 02:56:40 435.800 - 435.900 CW/SSB
Oscar 19 24 Jul 02:47:47 02:52:58 78° 103° (ESE) 02:58:09 437.125 CW, 437.150 USB
PCSat 24 Jul 02:50:10 02:55:36 83° 303° (WNW) 03:01:04 145.825 MHz
RS-15 24 Jul 02:50:14 02:53:27 12° 267° (W) 02:56:42 29.354 - 29.394 USB, Beacon 29.352 USB
TMSAT-1 24 Jul 03:13:16 03:17:13 21° 91° (E) 03:21:09 436.925 FM
Oscar 16 24 Jul 03:15:18 03:20:22 60° 289° (WNW) 03:25:26 437.025 USB, Beacon 2401.1428
Lituanica SAT-1 24 Jul 03:23:49 03:25:26 18° 357° (N) 03:27:03 437.275 MHz beacon
ITAMSAT 1 24 Jul 03:24:26 03:29:39 78° 104° (ESE) 03:34:49 435.822 SSB
ISS 24 Jul 03:32:45 03:36:03 52° 340° (NNW) 03:39:22 145.800 FM
Gurwin Techsat 1B 24 Jul 03:33:18 03:38:21 41° 98° (E) 03:43:20 435.225 FM
OPAL 24 Jul 03:41:38 03:46:31 62° 69° (ENE) 03:51:25 ?
AO-27 24 Jul 03:42:11 03:47:24 74° 287° (WNW) 03:52:33 436.795 MHz FM
Uribyol 2 24 Jul 03:45:25 03:50:34 67° 288° (WNW) 03:55:40 436.500 FM
AO-Echo 24 Jul 03:48:08 03:53:16 62° 288° (WNW) 03:58:12 ?
Sapphire 24 Jul 04:00:31 04:05:17 31° 316° (NW) 04:10:06 437.095 MHz 1200 baud AX-25 AFSK
Uosat F 24 Jul 04:03:25 04:05:47 13° 88° (E) 04:08:07 435.120 FM
Oscar 19 24 Jul 04:28:29 04:31:43 17° 302° (WNW) 04:34:56 437.125 CW, 437.150 USB
JAS-1B 24 Jul 04:30:45 04:40:31 73° 291° (WNW) 04:49:07 435.800 - 435.900 CW/SSB
PCSat 24 Jul 04:35:58 04:39:52 20° 324° (NW) 04:43:46 145.825 MHz
TMSAT-1 24 Jul 04:52:20 04:57:32 58° 289° (WNW) 05:02:42 436.925 FM
Lituanica SAT-1 24 Jul 04:56:45 04:58:40 27° 16° (NNE) 05:00:35 437.275 MHz beacon
AO-7 24 Jul 04:57:45 05:05:35 43° 99° (E) 05:13:20 29.400 - 29.500 MHz
ITAMSAT 1 24 Jul 05:05:16 05:08:31 17° 302° (WNW) 05:11:46 435.822 SSB
ISS 24 Jul 05:10:12 05:13:14 30° 360° (N) 05:16:16 145.800 FM
Gurwin Techsat 1B 24 Jul 05:13:35 05:18:10 30° 296° (WNW) 05:22:43 435.225 FM
OPAL 24 Jul 05:22:32 05:25:50 18° 267° (W) 05:29:09 ?
AO-27 24 Jul 05:24:00 05:26:01 12° 306° (NW) 05:28:02 436.795 MHz FM
Uribyol 2 24 Jul 05:27:43 05:29:04 11° 307° (NW) 05:30:25 436.500 FM
AO-Echo 24 Jul 05:30:24 05:30:57 10° 308° (NW) 05:31:31 ?
Uosat F 24 Jul 05:40:09 05:45:13 83° 286° (WNW) 05:50:13 435.120 FM
Sapphire 24 Jul 05:49:52 05:50:34 10° 340° (NNW) 05:51:16 437.095 MHz 1200 baud AX-25 AFSK
STRAND 1 24 Jul 05:56:22 06:00:47 30° 64° (ENE) 06:05:12 ?
JAS-1B 24 Jul 06:22:22 06:29:17 23° 313° (NW) 06:35:49 435.800 - 435.900 CW/SSB
Lituanica SAT-1 24 Jul 06:29:28 06:31:30 36° 214° (SW) 06:33:31 437.275 MHz beacon
Oscar 10/S400 24 Jul 06:34:06 07:47:26 30° 243° (WSW) 11:18:08 145.825 - 145.975 CW/USB, Beacon 145.810 USB
ISS 24 Jul 06:47:08 06:50:26 50° 20° (NNE) 06:53:43 145.800 FM
Hamsat 24 Jul 06:47:50 06:51:57 45° 98° (E) 06:56:04 145.90 MHz
AO-7 24 Jul 06:50:33 06:58:30 51° 299° (WNW) 07:06:24 29.400 - 29.500 MHz
KITSAT 1 24 Jul 06:56:49 07:04:01 37° 109° (ESE) 07:11:14 435.175 FM
MaSat-1 24 Jul 07:04:44 07:09:31 32° 50° (NE) 07:14:13 437.345 MHz
JAS-2 24 Jul 07:05:27 07:11:36 49° 97° (E) 07:17:02 435.800 - 435.900 CW/SSB, 435.910 FM
Uosat F 24 Jul 07:20:57 07:23:13 13° 305° (NW) 07:25:29 435.120 FM
STRAND 1 24 Jul 07:34:59 07:39:49 41° 262° (W) 07:44:41 ?
SO-67 24 Jul 07:46:00 07:49:05 29° 96° (E) 07:52:09 435.3500 MHz FM
ISS 24 Jul 08:23:59 08:27:05 34° 218° (SW) 08:30:09 145.800 FM
Hamsat 24 Jul 08:24:31 08:27:38 20° 296° (WNW) 08:30:45 145.90 MHz
MaSat-1 24 Jul 08:41:59 08:47:05 46° 249° (WSW) 08:52:00 437.345 MHz
AO-7 24 Jul 08:45:20 08:49:23 15° 322° (NW) 08:53:26 29.400 - 29.500 MHz
JAS-2 24 Jul 08:50:56 08:56:22 30° 300° (WNW) 09:01:17 435.800 - 435.900 CW/SSB, 435.910 FM
KITSAT 1 24 Jul 08:51:04 08:59:04 61° 311° (NW) 09:07:07 435.175 FM
Sapphire 24 Jul 09:19:09 09:22:47 18° 34° (NNE) 09:26:25 437.095 MHz 1200 baud AX-25 AFSK
SO-67 24 Jul 09:19:27 09:22:00 19° 293° (WNW) 09:24:33 435.3500 MHz FM
Saudisat 1A 24 Jul 09:22:47 09:27:07 57° 122° (ESE) 09:31:28 436.775 MHz
HO-68 24 Jul 09:31:35 09:38:04 36° 96° (E) 09:44:31 435.675 MHz FM
PCSat 24 Jul 09:52:44 09:57:23 28° 42° (NE) 10:02:00 145.825 MHz
UKube-1 24 Jul 10:14:34 10:18:51 53° 101° (E) 10:23:06 145.840 MHz, 145.915 MHz
KITSAT 1 24 Jul 10:50:00 10:56:17 24° 337° (NNW) 11:02:35 435.175 FM
Sapphire 24 Jul 11:01:45 11:07:12 72° 56° (NE) 11:12:36 437.095 MHz 1200 baud AX-25 AFSK
Saudisat 1A 24 Jul 11:03:23 11:07:01 24° 321° (NW) 11:10:41 436.775 MHz
Oscar 11 24 Jul 11:05:28 11:09:49 85° 285° (WNW) 11:14:10 145.825 FM, Beacon 2401.500 USB
FUNcube-1 24 Jul 11:12:27 11:16:26 42° 98° (E) 11:20:24 145.950 - 145.970 MHz USB
HO-68 24 Jul 11:19:08 11:25:58 51° 296° (WNW) 11:32:47 435.675 MHz FM
PCSat 24 Jul 11:35:50 11:41:12 61° 243° (WSW) 11:46:31 145.825 MHz
JAS-1B 24 Jul 11:44:52 11:47:20 11° 32° (NNE) 11:49:50 435.800 - 435.900 CW/SSB
UKube-1 24 Jul 11:51:43 11:54:41 18° 298° (WNW) 11:57:39 145.840 MHz, 145.915 MHz
